Powrót do katalogu

FORMOSAT-7R/TRITON

AktywnyPogodaSSO
NORAD 58017·PAYLOAD·🇹🇼 Taiwan

Wystrzelony Oct 9, 2023 z Guiana Space Centre

Loading…

Następne Przeloty (najbliższe 24 godziny)

TLE

ŚwieżeSource: Space-Track

Epoka: Sep 14, 2026, 22:50 UTC

1 58017U 23155B   26257.95196769  .00001058  00000-0  11181-3 0  9990
2 58017  97.8305 338.7046 0002365 115.2847 244.8616 14.91335261159607

Śledź FORMOSAT-7R/TRITON w czasie rzeczywistym z AllMySat

Download on the App Store